Date String (YYYY-MM-DD hh:mm:ss) UTC,Instrument flags,absolute air pressure of the measurement (hPa),sample flow rate (lpm),inlet stack bypass flow (lpm),air temperature of the measurement (°C),ambient temperature measured by the external sensor (°C),aerosol sample conditioner tube jacket temperature (°C),OPC LED temperature (°C),internal box temperature (°C),relative humidity of the measurement (%),span deviation,mass concentration of particles derived from Lorenz-Mie calculation of OPC scattering (μg/m³),mass concentration of particles derived from Lorenz-Mie calculation of OPC scattering (μg/m³),mass concentration of particles derived from Lorenz-Mie calculation of OPC scattering (μg/m³)
DateTimeUTC,F1_M11,P_M11,Q1_M11,Q2_M11,T1_M11,T2_M11,T3_M11,T4_M11,T5_M11,U1_M11,ZSPAN_M11,X0_M11,X2_M11,X1_M11
2024-02-25 20:00:00,SystemResetWarning,0823.6,5.00,000.00,022.5,021.9,000.0,030.5,024.2,07.9,0000.0,0011.99,0003.30,0001.49
2024-02-25 20:01:00,SystemResetWarning,0823.6,5.00,000.00,022.5,021.9,000.0,030.5,024.2,08.0,0000.0,0012.16,0003.31,0001.49
2024-02-25 20:02:00,SystemResetWarning,0823.5,5.00,000.00,022.5,021.9,000.0,030.5,024.2,08.0,0000.0,0012.96,0003.36,0001.50
2024-02-25 20:03:00,SystemResetWarning,0823.6,5.00,000.00,022.5,021.9,000.0,030.5,024.2,07.7,0000.0,0012.54,0003.35,0001.49
2024-02-25 20:04:00,SystemResetWarning,0823.4,5.00,000.00,022.5,021.9,000.0,030.5,024.2,07.7,0000.0,0011.83,0003.36,0001.47
2024-02-25 20:05:00,SystemResetWarning,0823.4,5.00,000.00,022.5,021.9,000.0,030.5,024.2,07.6,0000.0,0011.42,0003.31,0001.47
2024-02-25 20:06:00,SystemResetWarning,0823.5,5.00,000.00,022.5,021.9,000.0,030.5,024.2,07.8,0000.0,0011.75,0003.32,0001.48
2024-02-25 20:07:00,SystemResetWarning,0823.5,5.00,000.00,022.5,021.9,000.0,030.6,024.2,07.9,0000.0,0011.98,0003.32,0001.48
2024-02-25 20:08:00,SystemResetWarning,0823.5,5.00,000.00,022.6,021.9,000.0,030.6,024.2,07.8,0000.0,0012.05,0003.32,0001.46
2024-02-25 20:09:00,SystemResetWarning,0823.3,5.00,000.00,022.6,021.9,000.0,030.6,024.3,08.0,0000.0,0012.04,0003.32,0001.46
2024-02-25 20:10:00,SystemResetWarning,0823.4,5.00,000.00,022.6,022.0,000.0,030.6,024.3,07.6,0000.0,0012.17,0003.33,0001.46
2024-02-25 20:11:00,SystemResetWarning,0823.5,5.00,000.00,022.6,022.0,000.0,030.6,024.3,07.5,0000.0,0012.21,0003.31,0001.45
2024-02-25 20:12:00,SystemResetWarning,0823.5,5.00,000.00,022.6,022.0,000.0,030.6,024.3,07.8,0000.0,0011.85,0003.31,0001.44
2024-02-25 20:13:00,SystemResetWarning,0823.4,4.99,000.00,022.6,022.0,000.0,030.6,024.3,07.8,0000.0,0011.78,0003.29,0001.43
2024-02-25 20:14:00,SystemResetWarning,0823.4,5.00,000.00,022.6,022.0,000.0,030.6,024.3,07.8,0000.0,0011.88,0003.30,0001.42
2024-02-25 20:15:00,SystemResetWarning,0823.1,5.00,000.00,022.6,022.0,000.0,030.7,024.3,07.6,0000.0,0012.17,0003.29,0001.44
2024-02-25 20:16:00,SystemResetWarning,0823.1,5.01,000.00,022.6,022.0,000.0,030.7,024.4,07.3,0000.0,0012.04,0003.29,0001.43
2024-02-25 20:17:00,SystemResetWarning,0823.2,5.01,000.00,022.7,022.0,000.0,030.7,024.3,07.7,0000.0,0011.48,0003.27,0001.42
2024-02-25 20:18:00,SystemResetWarning,0823.0,5.00,000.00,022.7,022.0,000.0,030.7,024.3,07.9,0000.0,0011.67,0003.29,0001.42
2024-02-25 20:19:00,SystemResetWarning,0823.1,5.00,000.00,022.7,022.0,000.0,030.7,024.4,07.6,0000.0,0011.84,0003.25,0001.41
2024-02-25 20:20:00,SystemResetWarning,0823.3,5.01,000.00,022.7,022.0,000.0,030.7,024.4,07.7,0000.0,0011.83,0003.24,0001.42
2024-02-25 20:21:00,SystemResetWarning,0822.9,5.01,000.00,022.7,022.1,000.0,030.7,024.4,07.8,0000.0,0011.96,0003.20,0001.41
2024-02-25 20:22:00,SystemResetWarning,0822.8,4.99,000.00,022.7,022.1,000.0,030.8,024.4,07.8,0000.0,0011.96,0003.21,0001.41
2024-02-25 20:23:00,SystemResetWarning,0823.1,4.99,000.00,022.7,022.1,000.0,030.8,024.4,07.6,0000.0,0012.20,0003.20,0001.43
2024-02-25 20:24:00,SystemResetWarning,0822.8,5.00,000.00,022.7,022.1,000.0,030.8,024.4,07.8,0000.0,0011.51,0003.19,0001.44
2024-02-25 20:25:00,SystemResetWarning,0822.8,5.01,000.00,022.7,022.1,000.0,030.8,024.4,07.5,0000.0,0010.81,0003.15,0001.44
2024-02-25 20:26:00,SystemResetWarning,0822.9,5.00,000.00,022.7,022.1,000.0,030.8,024.4,07.6,0000.0,0011.16,0003.15,0001.41
2024-02-25 20:27:00,SystemResetWarning,0822.8,5.00,000.00,022.7,022.1,000.0,030.8,024.4,07.6,0000.0,0011.01,0003.14,0001.40
2024-02-25 20:28:00,SystemResetWarning,0822.7,5.00,000.00,022.7,022.1,000.0,030.8,024.4,07.6,0000.0,0011.17,0003.17,0001.39
2024-02-25 20:29:00,SystemResetWarning,0822.8,5.00,000.00,022.7,022.1,000.0,030.8,024.4,07.6,0000.0,0010.75,0003.13,0001.38
2024-02-25 20:30:00,SystemResetWarning,0822.8,5.00,000.00,022.7,022.0,000.0,030.8,024.4,07.7,0000.0,0010.58,0003.16,0001.39
2024-02-25 20:31:00,SystemResetWarning,0822.8,5.00,000.00,022.7,022.0,000.0,030.9,024.4,07.7,0000.0,0012.10,0003.16,0001.38
2024-02-25 20:32:00,SystemResetWarning,0822.9,5.00,000.00,022.7,022.0,000.0,030.9,024.4,07.7,0000.0,0011.52,0003.12,0001.37
2024-02-25 20:33:00,SystemResetWarning,0822.9,5.00,000.00,022.7,022.0,000.0,030.9,024.4,07.8,0000.0,0012.01,0003.11,0001.38
2024-02-25 20:34:00,SystemResetWarning,0822.9,4.99,000.00,022.7,022.0,000.0,030.9,024.4,07.7,0000.0,0012.74,0003.11,0001.37
2024-02-25 20:35:00,SystemResetWarning,0822.8,5.00,000.00,022.7,022.1,000.0,030.9,024.4,07.7,0000.0,0012.48,0003.12,0001.35
2024-02-25 20:36:00,SystemResetWarning,0822.6,5.00,000.00,022.8,022.1,000.0,030.9,024.4,07.6,0000.0,0012.67,0003.16,0001.35
2024-02-25 20:37:00,SystemResetWarning,0822.6,5.01,000.00,022.8,022.1,000.0,030.9,024.4,07.6,0000.0,0012.54,0003.15,0001.36
2024-02-25 20:38:00,SystemResetWarning,0822.8,5.01,000.00,022.7,022.1,000.0,030.9,024.4,07.8,0000.0,0012.43,0003.15,0001.37
2024-02-25 20:39:00,SystemResetWarning,0822.9,5.00,000.00,022.8,022.1,000.0,030.9,024.5,07.8,0000.0,0013.25,0003.13,0001.37
2024-02-25 20:40:00,SystemResetWarning,0822.9,5.00,000.00,022.8,022.1,000.0,030.9,024.4,07.6,0000.0,0013.30,0003.15,0001.36
2024-02-25 20:41:00,SystemResetWarning,0822.8,4.99,000.00,022.8,022.1,000.0,030.9,024.4,07.7,0000.0,0012.93,0003.07,0001.36
2024-02-25 20:42:00,SystemResetWarning,0822.5,5.01,000.00,022.8,022.1,000.0,030.9,024.5,07.7,0000.0,0011.55,0003.06,0001.37
2024-02-25 20:43:00,SystemResetWarning,0822.5,5.01,000.00,022.8,022.1,000.0,030.9,024.4,07.6,0000.0,0011.48,0003.08,0001.39
2024-02-25 20:44:00,SystemResetWarning,0822.7,5.01,000.00,022.8,022.1,000.0,030.9,024.4,07.6,0000.0,0010.84,0003.09,0001.39
2024-02-25 20:45:00,SystemResetWarning,0822.5,4.99,000.00,022.8,022.1,000.0,030.9,024.4,07.7,0000.0,0010.69,0003.10,0001.39
2024-02-25 20:46:00,SystemResetWarning,0822.7,4.99,000.00,022.8,022.1,000.0,030.9,024.5,07.6,0000.0,0011.14,0003.12,0001.40
2024-02-25 20:47:00,SystemResetWarning,0822.5,4.99,000.00,022.8,022.1,000.0,030.9,024.5,07.7,0000.0,0011.35,0003.13,0001.40
2024-02-25 20:48:00,SystemResetWarning,0822.4,5.00,000.00,022.8,022.1,000.0,030.9,024.5,07.7,0000.0,0011.43,0003.12,0001.39
2024-02-25 20:49:00,SystemResetWarning,0822.5,5.01,000.00,022.8,022.1,000.0,030.9,024.5,07.7,0000.0,0012.27,0003.17,0001.40
2024-02-25 20:50:00,SystemResetWarning,0822.6,5.00,000.00,022.8,022.1,000.0,030.9,024.5,07.7,0000.0,0011.58,0003.15,0001.41
2024-02-25 20:51:00,SystemResetWarning,0822.7,5.00,000.00,022.8,022.1,000.0,031.0,024.5,07.6,0000.0,0011.79,0003.13,0001.41
2024-02-25 20:52:00,SystemResetWarning,0822.4,4.99,000.00,022.8,022.1,000.0,031.0,024.5,07.7,0000.0,0012.47,0003.15,0001.41
2024-02-25 20:53:00,SystemResetWarning,0822.5,4.99,000.00,022.8,022.1,000.0,031.0,024.5,07.5,0000.0,0012.16,0003.18,0001.40
2024-02-25 20:54:00,SystemResetWarning,0822.4,4.99,000.00,022.8,022.1,000.0,031.0,024.5,07.6,0000.0,0012.15,0003.18,0001.39
2024-02-25 20:55:00,SystemResetWarning,0822.6,5.00,000.00,022.8,022.1,000.0,031.0,024.5,07.6,0000.0,0012.68,0003.18,0001.40
2024-02-25 20:56:00,SystemResetWarning,0822.6,5.01,000.00,022.8,022.1,000.0,031.0,024.5,07.6,0000.0,0012.01,0003.15,0001.40
2024-02-25 20:57:00,SystemResetWarning,0822.5,5.01,000.00,022.8,022.1,000.0,031.0,024.5,07.6,0000.0,0012.11,0003.11,0001.41
2024-02-25 20:58:00,SystemResetWarning,0822.2,5.01,000.00,022.8,022.1,000.0,031.0,024.6,07.6,0000.0,0011.60,0002.99,0001.42
2024-02-25 20:59:00,SystemResetWarning,0822.4,5.00,000.00,022.8,022.1,000.0,031.0,024.6,07.7,0000.0,0010.97,0003.07,0001.44
